Regional Weather Roundup
Issued by NWS

Home | Current Version | Previous Version | Text Only | Print | Product List | Glossary On
Versions: 1 2 3 4 5 6 7 8 9 10 11 12 13 14 15 16 17 18 19 20 21 22 23 24 25 26 27 28 29 30 31 32 33 34 35 36 37 38 39 40 41 42 43 44 45 46 47 48 49 50
330
ASUS43 KTOP 071459
RWRKS

WEATHER ROUNDUP FOR KANSAS
NATIONAL WEATHER SERVICE GOODLAND KS
900 AM CST SUN FEB 07 2016

NOTE:  "FAIR" INDICATES FEW OR NO CLOUDS BELOW 12,000 FEET WITH NO
SIGNIFICANT WEATHER AND/OR OBSTRUCTIONS TO VISIBILITY.

KSZ001>006-013>018-027>032-041>047-071600-
NORTHWEST KANSAS

CITY           SKY/WX    TMP DP  RH WIND       PRES   REMARKS
GOODLAND       SUNNY     26  15  63 NW14      30.23R WCI  14
HAYS           PTSUNNY   36  23  60 W13       30.18R WCI  27
HILL CITY      PTSUNNY   36  24  62 NW6       30.19R
RUSSELL        CLOUDY    39  29  67 W10       30.15R WCI  32
$$

KSZ061>065-074>080-084>089-071600-
SOUTHWEST KANSAS

CITY           SKY/WX    TMP DP  RH WIND       PRES   REMARKS
DODGE CITY     SUNNY     37  26  64 NW13      30.20R WCI  29
ELKHART          N/A     34  21  59 NW6         N/A
GARDEN CITY    SUNNY     34  26  72 NW10      30.21R WCI  26
GREAT BEND     MOSUNNY   37  25  60 NW9       30.18R
LIBERAL        SUNNY     36  25  64 NW9       30.22R
$$

KSZ066>073-081>083-090>101-071600-
SOUTHEAST KANSAS

CITY           SKY/WX    TMP DP  RH WIND       PRES   REMARKS
CHANUTE        CLOUDY    40  27  59 W8        30.10R
COFFEYVILLE    MOSUNNY   38  30  73 SW6       30.13R
HUTCHINSON     PTSUNNY   37  28  70 NW8       30.15R
MEDICINE LODGE   N/A     38  28  67 N9        30.16R
NEWTON         CLOUDY    37  27  65 NW9       30.13R
PARSONS        CLOUDY    38  29  70 SW9       30.12S
WICHITA INTL   CLOUDY    40  28  62 NW8       30.12R
WICHITA JABRA  CLOUDY    40  28  62 NW9       30.11R
WINFIELD       CLOUDY    35  28  75 W6        30.14R
$$

KSZ007>012-019>026-033>040-048>060-102>105-071600-
NORTHEAST KANSAS

CITY           SKY/WX    TMP DP  RH WIND       PRES   REMARKS
CONCORDIA      MOSUNNY   36  26  67 W8        30.11R
EMPORIA        CLOUDY    40  27  59 NW9       30.09R
LAWRENCE       CLOUDY    38  28  67 W6        30.07R
MANHATTAN      MOSUNNY   41  29  62 VRB3      30.11R
OLATHE IND     CLOUDY    39  28  64 W12       30.06R WCI  32
OLATHE EXE     CLOUDY    38  26  62 W5        30.05R
SALINA         CLOUDY    43  29  57 NW8       30.14R
TOPEKA BILLARD CLOUDY    39  27  62 W12       30.08R WCI  32
TOPEKA FORBES  MOSUNNY   42  28  57 NW14      30.07R
$$




USA.gov is the U.S. government's official web portal to all federal, state and local government web resources and services.